| time (UTC) | temp F | wind direction | speed MPH | gust MPH | rain 1hr in | rain 24hr in | rain mn in | humidity % | barometer mb |
| 20260902141046 | 89 | 47 | 1.0 | 2.0 | 0.00 | 0.00 | 0.00 | 47 | 1015.9 |
| 20260902140549 | 90 | 47 | 1.0 | 2.0 | 0.00 | 0.00 | 0.00 | 48 | 1016.0 |
| 20260902140020 | 89 | 47 | 1.0 | 4.0 | 0.00 | 0.00 | 0.00 | 45 | 1015.9 |
| 20260902135524 | 89 | 47 | 1.0 | 4.0 | 0.00 | 0.00 | 0.00 | 47 | 1016.0 |
| 20260902135025 | 89 | 47 | 2.0 | 4.0 | 0.00 | 0.00 | 0.00 | 45 | 1016.0 |
| 20260902134531 | 88 | 46 | 1.0 | 2.0 | 0.00 | 0.00 | 0.00 | 49 | 1016.0 |
| 20260902134051 | 87 | 46 | 0.0 | 2.0 | 0.00 | 0.00 | 0.00 | 57 | 1016.0 |
| 20260902133512 | 87 | 46 | 0.0 | 1.0 | 0.00 | 0.00 | 0.00 | 57 | 1016.1 |
| 20260902133024 | 87 | 46 | 0.0 | 1.0 | 0.00 | 0.00 | 0.00 | 57 | 1016.1 |
| 20260902132529 | 87 | 46 | 1.0 | 1.0 | 0.00 | 0.00 | 0.00 | 54 | 1016.1 |
| 20260902132030 | 88 | 46 | 1.0 | 2.0 | 0.00 | 0.00 | 0.00 | 52 | 1016.2 |
| 20260902131533 | 88 | 46 | 1.0 | 3.0 | 0.00 | 0.00 | 0.00 | 48 | 1016.2 |
| 20260902131011 | 89 | 46 | 2.0 | 5.0 | 0.00 | 0.00 | 0.00 | 47 | 1016.2 |
| 20260902130515 | 89 | 47 | 2.0 | 5.0 | 0.00 | 0.00 | 0.00 | 45 | 1016.2 |
| 20260902130027 | 90 | 59 | 2.0 | 5.0 | 0.00 | 0.00 | 0.00 | 43 | 1016.3 |
| 20260902125511 | 90 | 72 | 3.0 | 6.0 | 0.00 | 0.00 | 0.00 | 42 | 1016.3 |
| 20260902125013 | 90 | 126 | 1.0 | 6.0 | 0.00 | 0.00 | 0.00 | 41 | 1016.3 |
| 20260902124518 | 90 | 115 | 2.0 | 4.0 | 0.00 | 0.00 | 0.00 | 43 | 1016.3 |
| 20260902124019 | 90 | 145 | 2.0 | 4.0 | 0.00 | 0.00 | 0.00 | 43 | 1016.3 |
| 20260902123522 | 91 | 108 | 1.0 | 3.0 | 0.00 | 0.00 | 0.00 | 41 | 1016.4 |
| 20260902123015 | 90 | 73 | 1.0 | 5.0 | 0.00 | 0.00 | 0.00 | 41 | 1016.4 |
| 20260902122538 | 90 | 82 | 2.0 | 8.0 | 0.00 | 0.00 | 0.00 | 42 | 1016.5 |
| 20260902122017 | 90 | 69 | 1.0 | 8.0 | 0.00 | 0.00 | 0.00 | 42 | 1016.6 |
| 20260902121523 | 90 | 59 | 2.0 | 4.0 | 0.00 | 0.00 | 0.00 | 41 | 1016.6 |
| 20260902121024 | 90 | 53 | 2.0 | 5.0 | 0.00 | 0.00 | 0.00 | 44 | 1016.7 |
| 20260902120526 | 89 | 55 | 2.0 | 5.0 | 0.00 | 0.00 | 0.00 | 43 | 1016.7 |
| 20260902120017 | 89 | 120 | 2.0 | 4.0 | 0.00 | 0.00 | 0.00 | 42 | 1016.7 |
| 20260902115541 | 89 | 56 | 1.0 | 7.0 | 0.00 | 0.00 | 0.00 | 42 | 1016.8 |
| 20260902115020 | 89 | 49 | 3.0 | 7.0 | 0.00 | 0.00 | 0.00 | 44 | 1017.0 |
| 20260902114523 | 89 | 84 | 3.0 | 10.0 | 0.00 | 0.00 | 0.00 | 44 | 1016.9 |
| 20260902114043 | 89 | 74 | 4.0 | 10.0 | 0.00 | 0.00 | 0.00 | 44 | 1017.0 |
| 20260902113524 | 89 | 79 | 5.0 | 9.0 | 0.00 | 0.00 | 0.00 | 44 | 1017.0 |
| 20260902113017 | 88 | 68 | 2.0 | 7.0 | 0.00 | 0.00 | 0.00 | 44 | 1017.0 |
| 20260902112522 | 88 | 63 | 4.0 | 10.0 | 0.00 | 0.00 | 0.00 | 44 | 1017.1 |
| 20260902112024 | 88 | 56 | 3.0 | 10.0 | 0.00 | 0.00 | 0.00 | 46 | 1017.1 |
| 20260902111548 | 88 | 64 | 4.0 | 11.0 | 0.00 | 0.00 | 0.00 | 45 | 1017.2 |
| 20260902111026 | 87 | 37 | 4.0 | 11.0 | 0.00 | 0.00 | 0.00 | 45 | 1017.2 |
| 20260902110551 | 87 | 33 | 5.0 | 10.0 | 0.00 | 0.00 | 0.00 | 45 | 1017.3 |
| 20260902110024 | 87 | 76 | 4.0 | 10.0 | 0.00 | 0.00 | 0.00 | 44 | 1017.4 |
| 20260902105527 | 87 | 30 | 5.0 | 9.0 | 0.00 | 0.00 | 0.00 | 44 | 1017.4 |
| 20260902105049 | 87 | 63 | 4.0 | 11.0 | 0.00 | 0.00 | 0.00 | 45 | 1017.4 |
| 20260902104531 | 87 | 70 | 5.0 | 13.0 | 0.00 | 0.00 | 0.00 | 44 | 1017.5 |
| 20260902104053 | 87 | 57 | 5.0 | 13.0 | 0.00 | 0.00 | 0.00 | 45 | 1017.5 |
| 20260902103514 | 87 | 56 | 3.0 | 10.0 | 0.00 | 0.00 | 0.00 | 46 | 1017.6 |
| 20260902103025 | 86 | 61 | 5.0 | 11.0 | 0.00 | 0.00 | 0.00 | 45 | 1017.7 |
| 20260902102514 | 86 | 55 | 4.0 | 11.0 | 0.00 | 0.00 | 0.00 | 44 | 1017.7 |
| 20260902102016 | 86 | 42 | 3.0 | 9.0 | 0.00 | 0.00 | 0.00 | 45 | 1017.8 |
| 20260902101540 | 86 | 98 | 5.0 | 12.0 | 0.00 | 0.00 | 0.00 | 46 | 1017.9 |
| 20260902101018 | 86 | 51 | 2.0 | 14.0 | 0.00 | 0.00 | 0.00 | 45 | 1017.9 |
| 20260902100522 | 86 | 50 | 4.0 | 10.0 | 0.00 | 0.00 | 0.00 | 45 | 1017.9 |
| 20260902100016 | 86 | 67 | 3.0 | 9.0 | 0.00 | 0.00 | 0.00 | 46 | 1017.9 |
| 20260902095541 | 85 | 40 | 3.0 | 11.0 | 0.00 | 0.00 | 0.00 | 45 | 1017.9 |
| 20260902095021 | 85 | 37 | 6.0 | 13.0 | 0.00 | 0.00 | 0.00 | 46 | 1018.0 |
| 20260902094524 | 85 | 57 | 6.0 | 16.0 | 0.00 | 0.00 | 0.00 | 45 | 1018.1 |
| 20260902094025 | 85 | 69 | 6.0 | 16.0 | 0.00 | 0.00 | 0.00 | 45 | 1018.1 |
| 20260902093530 | 85 | 61 | 4.0 | 13.0 | 0.00 | 0.00 | 0.00 | 45 | 1018.2 |
| 20260902093044 | 85 | 43 | 5.0 | 10.0 | 0.00 | 0.00 | 0.00 | 45 | 1018.2 |
| 20260902092526 | 84 | 45 | 4.0 | 12.0 | 0.00 | 0.00 | 0.00 | 46 | 1018.3 |
| 20260902092047 | 84 | 55 | 6.0 | 12.0 | 0.00 | 0.00 | 0.00 | 46 | 1018.3 |
| 20260902091529 | 84 | 355 | 6.0 | 13.0 | 0.00 | 0.00 | 0.00 | 45 | 1018.3 |
| 20260902091012 | 84 | 78 | 5.0 | 13.0 | 0.00 | 0.00 | 0.00 | 46 | 1018.4 |
| 20260902090538 | 84 | 53 | 6.0 | 14.0 | 0.00 | 0.00 | 0.00 | 45 | 1018.4 |
| 20260902090031 | 84 | 67 | 5.0 | 15.0 | 0.00 | 0.00 | 0.00 | 45 | 1018.5 |
| 20260902085516 | 84 | 62 | 6.0 | 12.0 | 0.00 | 0.00 | 0.00 | 45 | 1018.4 |
| 20260902085016 | 83 | 54 | 4.0 | 13.0 | 0.00 | 0.00 | 0.00 | 46 | 1018.4 |
| 20260902084520 | 83 | 63 | 5.0 | 12.0 | 0.00 | 0.00 | 0.00 | 45 | 1018.4 |
| 20260902084041 | 83 | 69 | 7.0 | 12.0 | 0.00 | 0.00 | 0.00 | 45 | 1018.4 |
| 20260902083525 | 83 | 59 | 4.0 | 11.0 | 0.00 | 0.00 | 0.00 | 47 | 1018.4 |
| 20260902083018 | 83 | 38 | 6.0 | 11.0 | 0.00 | 0.00 | 0.00 | 47 | 1018.3 |
| 20260902082521 | 83 | 49 | 5.0 | 12.0 | 0.00 | 0.00 | 0.00 | 46 | 1018.3 |
| 20260902082019 | 83 | 55 | 4.0 | 13.0 | 0.00 | 0.00 | 0.00 | 48 | 1018.3 |
| 20260902081523 | 82 | 72 | 4.0 | 12.0 | 0.00 | 0.00 | 0.00 | 48 | 1018.2 |
| 20260902081024 | 82 | 59 | 4.0 | 12.0 | 0.00 | 0.00 | 0.00 | 47 | 1018.2 |
| 20260902080528 | 82 | 75 | 5.0 | 16.0 | 0.00 | 0.00 | 0.00 | 49 | 1018.1 |
| 20260902080019 | 82 | 49 | 8.0 | 16.0 | 0.00 | 0.00 | 0.00 | 47 | 1018.1 |
| 20260902075523 | 82 | 61 | 5.0 | 13.0 | 0.00 | 0.00 | 0.00 | 49 | 1018.1 |
| 20260902075043 | 81 | 33 | 4.0 | 13.0 | 0.00 | 0.00 | 0.00 | 48 | 1018.2 |
| 20260902074545 | 81 | 63 | 4.0 | 11.0 | 0.00 | 0.00 | 0.00 | 50 | 1018.2 |
| 20260902074028 | 81 | 59 | 4.0 | 13.0 | 0.00 | 0.00 | 0.00 | 49 | 1018.1 |
| 20260902073532 | 80 | 48 | 7.0 | 13.0 | 0.00 | 0.00 | 0.00 | 49 | 1018.1 |
| 20260902073025 | 80 | 58 | 5.0 | 11.0 | 0.00 | 0.00 | 0.00 | 50 | 1018.2 |
| 20260902072529 | 80 | 59 | 6.0 | 12.0 | 0.00 | 0.00 | 0.00 | 50 | 1018.1 |
| 20260902072027 | 80 | 54 | 4.0 | 12.0 | 0.00 | 0.00 | 0.00 | 51 | 1018.1 |
| 20260902071530 | 80 | 61 | 6.0 | 14.0 | 0.00 | 0.00 | 0.00 | 51 | 1018.1 |
| 20260902071051 | 79 | 49 | 7.0 | 14.0 | 0.00 | 0.00 | 0.00 | 51 | 1018.0 |
| 20260902070512 | 79 | 36 | 6.0 | 14.0 | 0.00 | 0.00 | 0.00 | 52 | 1018.0 |
| 20260902070044 | 79 | 55 | 5.0 | 14.0 | 0.00 | 0.00 | 0.00 | 52 | 1017.9 |
| 20260902065527 | 78 | 76 | 4.0 | 13.0 | 0.00 | 0.00 | 0.00 | 53 | 1018.0 |
| 20260902065028 | 78 | 75 | 6.0 | 10.0 | 0.00 | 0.00 | 0.00 | 53 | 1018.0 |
| 20260902064551 | 77 | 57 | 4.0 | 11.0 | 0.00 | 0.00 | 0.00 | 54 | 1018.0 |
| 20260902064032 | 77 | 63 | 5.0 | 12.0 | 0.00 | 0.00 | 0.00 | 54 | 1018.0 |
| 20260902063515 | 76 | 60 | 5.0 | 12.0 | 0.00 | 0.00 | 0.00 | 56 | 1018.0 |
| 20260902063028 | 76 | 56 | 4.0 | 12.0 | 0.00 | 0.00 | 0.00 | 56 | 1018.1 |
| 20260902062532 | 76 | 50 | 7.0 | 12.0 | 0.00 | 0.00 | 0.00 | 56 | 1018.0 |
| 20260902062018 | 76 | 37 | 2.0 | 6.0 | 0.00 | 0.00 | 0.00 | 57 | 1018.0 |
| 20260902061521 | 75 | 44 | 1.0 | 9.0 | 0.00 | 0.00 | 0.00 | 59 | 1018.1 |
| 20260902061022 | 75 | 42 | 3.0 | 11.0 | 0.00 | 0.00 | 0.00 | 58 | 1018.1 |
| 20260902060526 | 75 | 51 | 4.0 | 11.0 | 0.00 | 0.00 | 0.00 | 57 | 1018.1 |
| 20260902060020 | 75 | 21 | 3.0 | 9.0 | 0.00 | 0.00 | 0.00 | 58 | 1018.1 |
| 20260902055525 | 75 | 12 | 2.0 | 8.0 | 0.00 | 0.00 | 0.00 | 58 | 1018.1 |
| 20260902055026 | 74 | 12 | 1.0 | 4.0 | 0.00 | 0.00 | 0.00 | 59 | 1018.1 |
| 20260902054529 | 74 | 5 | 2.0 | 8.0 | 0.00 | 0.00 | 0.00 | 59 | 1018.1 |
| 20260902054028 | 74 | 5 | 2.0 | 8.0 | 0.00 | 0.00 | 0.00 | 59 | 1018.1 |
| 20260902053531 | 73 | 12 | 1.0 | 4.0 | 0.00 | 0.00 | 0.00 | 62 | 1018.1 |
| 20260902053023 | 74 | 13 | 1.0 | 5.0 | 0.00 | 0.00 | 0.00 | 61 | 1018.0 |
| 20260902052549 | 74 | 15 | 2.0 | 5.0 | 0.00 | 0.00 | 0.00 | 61 | 1018.0 |
| 20260902052029 | 73 | 13 | 2.0 | 6.0 | 0.00 | 0.00 | 0.00 | 60 | 1017.9 |
| 20260902051512 | 73 | 17 | 2.0 | 8.0 | 0.00 | 0.00 | 0.00 | 63 | 1017.9 |
| 20260902051013 | 72 | 17 | 2.0 | 8.0 | 0.00 | 0.00 | 0.00 | 62 | 1018.0 |
| 20260902050515 | 72 | 16 | 1.0 | 5.0 | 0.00 | 0.00 | 0.00 | 63 | 1017.9 |
| 20260902050013 | 72 | 16 | 1.0 | 5.0 | 0.00 | 0.00 | 0.00 | 64 | 1017.9 |
| 20260902045516 | 72 | 16 | 1.0 | 3.0 | 0.00 | 0.00 | 0.00 | 65 | 1017.9 |
| 20260902045036 | 72 | 16 | 1.0 | 3.0 | 0.00 | 0.00 | 0.00 | 63 | 1017.9 |
| 20260902044519 | 72 | 16 | 1.0 | 4.0 | 0.00 | 0.00 | 0.00 | 64 | 1017.9 |
| 20260902044018 | 72 | 17 | 2.0 | 4.0 | 0.00 | 0.00 | 0.00 | 66 | 1017.8 |
| 20260902043524 | 71 | 18 | 1.0 | 3.0 | 0.00 | 0.00 | 0.00 | 65 | 1017.8 |
| 20260902043019 | 71 | 19 | 1.0 | 3.0 | 0.00 | 0.00 | 0.00 | 64 | 1017.7 |
| 20260902042520 | 71 | 19 | 1.0 | 3.0 | 0.00 | 0.00 | 0.00 | 66 | 1017.7 |
| 20260902042042 | 71 | 19 | 1.0 | 3.0 | 0.00 | 0.00 | 0.00 | 67 | 1017.7 |
| 20260902041524 | 71 | 19 | 1.0 | 3.0 | 0.00 | 0.00 | 0.00 | 67 | 1017.6 |
| 20260902041044 | 71 | 19 | 1.0 | 3.0 | 0.00 | 0.00 | 0.00 | 67 | 1017.6 |
| 20260902040526 | 71 | 19 | 1.0 | 3.0 | 0.00 | 0.00 | 0.00 | 67 | 1017.6 |
| 20260902040020 | 71 | 20 | 1.0 | 3.0 | 0.00 | 0.00 | 0.00 | 67 | 1017.6 |
| 20260902035524 | 71 | 20 | 1.0 | 4.0 | 0.00 | 0.00 | 0.00 | 65 | 1017.6 |
| 20260902035025 | 71 | 20 | 2.0 | 4.0 | 0.00 | 0.00 | 0.00 | 65 | 1017.6 |
| 20260902034528 | 72 | 22 | 1.0 | 3.0 | 0.00 | 0.00 | 0.00 | 65 | 1017.7 |
| 20260902034030 | 72 | 23 | 1.0 | 3.0 | 0.00 | 0.00 | 0.00 | 64 | 1017.7 |
| 20260902033554 | 72 | 23 | 2.0 | 4.0 | 0.00 | 0.00 | 0.00 | 64 | 1017.7 |
| 20260902033024 | 72 | 24 | 1.0 | 4.0 | 0.00 | 0.00 | 0.00 | 64 | 1017.8 |
| 20260902032527 | 72 | 24 | 2.0 | 4.0 | 0.00 | 0.00 | 0.00 | 64 | 1017.7 |
| 20260902032030 | 72 | 26 | 1.0 | 3.0 | 0.00 | 0.00 | 0.00 | 63 | 1017.7 |
| 20260902031534 | 73 | 26 | 1.0 | 5.0 | 0.00 | 0.00 | 0.00 | 63 | 1017.7 |
| 20260902031012 | 72 | 26 | 3.0 | 5.0 | 0.00 | 0.00 | 0.00 | 62 | 1017.7 |
| 20260902030515 | 73 | 27 | 1.0 | 3.0 | 0.00 | 0.00 | 0.00 | 63 | 1017.6 |
| 20260902030027 | 73 | 28 | 1.0 | 3.0 | 0.00 | 0.00 | 0.00 | 64 | 1017.7 |
| 20260902025529 | 73 | 28 | 1.0 | 8.0 | 0.00 | 0.00 | 0.00 | 64 | 1017.7 |
| 20260902025030 | 73 | 28 | 2.0 | 8.0 | 0.00 | 0.00 | 0.00 | 61 | 1017.7 |
| 20260902024515 | 73 | 36 | 1.0 | 5.0 | 0.00 | 0.00 | 0.00 | 64 | 1017.8 |
| 20260902024014 | 73 | 37 | 2.0 | 6.0 | 0.00 | 0.00 | 0.00 | 62 | 1017.7 |
| 20260902023519 | 74 | 44 | 2.0 | 9.0 | 0.00 | 0.00 | 0.00 | 61 | 1017.8 |
| 20260902023033 | 74 | 42 | 4.0 | 10.0 | 0.00 | 0.00 | 0.00 | 61 | 1017.7 |
| 20260902022537 | 74 | 42 | 3.0 | 11.0 | 0.00 | 0.00 | 0.00 | 60 | 1017.8 |
| 20260902022015 | 74 | 52 | 4.0 | 14.0 | 0.00 | 0.00 | 0.00 | 60 | 1017.7 |
| 20260902021517 | 75 | 37 | 4.0 | 14.0 | 0.00 | 0.00 | 0.00 | 60 | 1017.6 |
| 20260902021017 | 75 | 343 | 2.0 | 4.0 | 0.00 | 0.00 | 0.00 | 60 | 1017.6 |
| 20260902020526 | 75 | 343 | 2.0 | 3.0 | 0.00 | 0.00 | 0.00 | 58 | 1017.6 |
| 20260902020019 | 75 | 344 | 2.0 | 3.0 | 0.00 | 0.00 | 0.00 | 58 | 1017.6 |
| 20260902015524 | 75 | 344 | 1.0 | 4.0 | 0.00 | 0.00 | 0.00 | 57 | 1017.6 |
| 20260902015026 | 75 | 344 | 2.0 | 5.0 | 0.00 | 0.00 | 0.00 | 57 | 1017.6 |
| 20260902014550 | 75 | 345 | 2.0 | 5.0 | 0.00 | 0.00 | 0.00 | 58 | 1017.5 |
| 20260902014030 | 75 | 342 | 1.0 | 3.0 | 0.00 | 0.00 | 0.00 | 57 | 1017.5 |
| 20260902013515 | 75 | 342 | 1.0 | 4.0 | 0.00 | 0.00 | 0.00 | 57 | 1017.5 |
| 20260902013027 | 75 | 342 | 2.0 | 4.0 | 0.00 | 0.00 | 0.00 | 58 | 1017.5 |
| 20260902012551 | 76 | 344 | 1.0 | 6.0 | 0.00 | 0.00 | 0.00 | 58 | 1017.5 |
| 20260902012052 | 76 | 344 | 3.0 | 9.0 | 0.00 | 0.00 | 0.00 | 57 | 1017.7 |
| 20260902011513 | 76 | 348 | 2.0 | 9.0 | 0.00 | 0.00 | 0.00 | 56 | 1017.8 |
| 20260902011013 | 76 | 345 | 2.0 | 5.0 | 0.00 | 0.00 | 0.00 | 57 | 1017.7 |
| 20260902010515 | 76 | 350 | 2.0 | 5.0 | 0.00 | 0.00 | 0.00 | 56 | 1017.9 |
| 20260902010027 | 76 | 355 | 2.0 | 6.0 | 0.00 | 0.00 | 0.00 | 56 | 1017.9 |
| 20260902005531 | 76 | 355 | 2.0 | 6.0 | 0.00 | 0.00 | 0.00 | 57 | 1017.8 |
| 20260902005032 | 76 | 360 | 2.0 | 5.0 | 0.00 | 0.00 | 0.00 | 57 | 1017.9 |
| 20260902004517 | 76 | 5 | 2.0 | 5.0 | 0.00 | 0.00 | 0.00 | 57 | 1018.0 |
| 20260902004017 | 76 | 9 | 2.0 | 9.0 | 0.00 | 0.00 | 0.00 | 58 | 1018.0 |
| 20260902003525 | 76 | 5 | 2.0 | 9.0 | 0.00 | 0.00 | 0.00 | 58 | 1018.1 |
| 20260902003038 | 76 | 333 | 2.0 | 4.0 | 0.00 | 0.00 | 0.00 | 59 | 1018.1 |
| 20260902002518 | 76 | 335 | 2.0 | 4.0 | 0.00 | 0.00 | 0.00 | 58 | 1018.1 |
| 20260902002018 | 75 | 338 | 1.0 | 3.0 | 0.00 | 0.00 | 0.00 | 59 | 1018.2 |
| 20260902001522 | 75 | 338 | 1.0 | 4.0 | 0.00 | 0.00 | 0.00 | 60 | 1018.1 |
| 20260902001022 | 76 | 338 | 2.0 | 4.0 | 0.00 | 0.00 | 0.00 | 58 | 1018.1 |
| 20260902000525 | 76 | 339 | 1.0 | 3.0 | 0.00 | 0.00 | 0.00 | 60 | 1018.2 |
| 20260902000038 | 76 | 340 | 0.0 | 4.0 | 0.00 | 0.00 | 0.00 | 60 | 1018.3 |
| 20260901235521 | 77 | 340 | 1.0 | 8.0 | 0.00 | 0.00 | 0.00 | 59 | 1018.2 |
| 20260901235021 | 77 | 340 | 3.0 | 8.0 | 0.00 | 0.00 | 0.00 | 57 | 1018.3 |
| 20260901234525 | 76 | 5 | 1.0 | 8.0 | 0.00 | 0.00 | 0.00 | 57 | 1018.2 |
| 20260901234024 | 75 | 44 | 2.0 | 5.0 | 0.00 | 0.00 | 0.00 | 64 | 1018.3 |
| 20260901233526 | 75 | 47 | 2.0 | 5.0 | 0.00 | 0.00 | 0.00 | 62 | 1018.3 |
| 20260901233019 | 75 | 49 | 1.0 | 5.0 | 0.00 | 0.00 | 0.00 | 60 | 1018.3 |
| 20260901232523 | 74 | 50 | 2.0 | 4.0 | 0.00 | 0.00 | 0.00 | 64 | 1018.2 |
| 20260901232029 | 73 | 51 | 2.0 | 4.0 | 0.00 | 0.00 | 0.00 | 63 | 1018.2 |
| 20260901231531 | 73 | 49 | 1.0 | 4.0 | 0.00 | 0.00 | 0.00 | 65 | 1018.3 |
| 20260901231029 | 73 | 50 | 2.0 | 4.0 | 0.00 | 0.00 | 0.00 | 67 | 1018.3 |
| 20260901230513 | 74 | 51 | 2.0 | 6.0 | 0.00 | 0.00 | 0.00 | 66 | 1018.3 |
| 20260901230028 | 74 | 52 | 2.0 | 14.0 | 0.00 | 0.00 | 0.00 | 65 | 1018.4 |
| 20260901225533 | 73 | 59 | 5.0 | 14.0 | 0.00 | 0.00 | 0.00 | 67 | 1018.3 |
| 20260901225034 | 70 | 53 | 6.0 | 14.0 | 0.00 | 0.00 | 0.00 | 73 | 1018.5 |
| 20260901224517 | 69 | 50 | 0.0 | 2.0 | 0.00 | 0.00 | 0.00 | 79 | 1018.5 |
| 20260901224019 | 69 | 50 | 0.0 | 2.0 | 0.00 | 0.00 | 0.00 | 79 | 1018.5 |
| 20260901223524 | 69 | 50 | 0.0 | 1.0 | 0.00 | 0.00 | 0.00 | 79 | 1018.4 |
| 20260901223033 | 69 | 50 | 0.0 | 2.0 | 0.00 | 0.00 | 0.00 | 80 | 1018.3 |
| 20260901222516 | 69 | 50 | 0.0 | 3.0 | 0.00 | 0.00 | 0.00 | 80 | 1018.1 |
| 20260901222015 | 68 | 50 | 1.0 | 3.0 | 0.00 | 0.00 | 0.00 | 80 | 1018.1 |
| 20260901221523 | 68 | 50 | 1.0 | 2.0 | 0.00 | 0.00 | 0.00 | 80 | 1018.1 |
| 20260901221022 | 68 | 50 | 0.0 | 2.0 | 0.00 | 0.00 | 0.00 | 81 | 1018.1 |
| 20260901220525 | 68 | 50 | 0.0 | 2.0 | 0.00 | 0.00 | 0.00 | 81 | 1018.1 |
| 20260901220019 | 68 | 50 | 1.0 | 2.0 | 0.00 | 0.00 | 0.00 | 81 | 1018.1 |
| 20260901215544 | 68 | 50 | 0.0 | 2.0 | 0.00 | 0.00 | 0.00 | 80 | 1017.9 |
| 20260901215022 | 68 | 50 | 0.0 | 2.0 | 0.00 | 0.00 | 0.00 | 81 | 1017.9 |
| 20260901214526 | 68 | 50 | 0.0 | 1.0 | 0.00 | 0.00 | 0.00 | 80 | 1017.8 |
| 20260901214027 | 68 | 50 | 1.0 | 1.0 | 0.00 | 0.00 | 0.00 | 80 | 1017.8 |
| 20260901213531 | 68 | 50 | 0.0 | 1.0 | 0.00 | 0.00 | 0.00 | 81 | 1017.7 |
| 20260901213023 | 68 | 50 | 0.0 | 1.0 | 0.00 | 0.00 | 0.00 | 81 | 1017.7 |
| 20260901212526 | 68 | 50 | 1.0 | 1.0 | 0.00 | 0.00 | 0.00 | 81 | 1017.7 |
| 20260901212024 | 68 | 50 | 0.0 | 1.0 | 0.00 | 0.00 | 0.00 | 81 | 1017.6 |
| 20260901211548 | 68 | 50 | 0.0 | 2.0 | 0.00 | 0.00 | 0.00 | 81 | 1017.7 |
| 20260901211026 | 68 | 50 | 1.0 | 2.0 | 0.00 | 0.00 | 0.00 | 81 | 1017.6 |
| 20260901210549 | 68 | 50 | 0.0 | 1.0 | 0.00 | 0.00 | 0.00 | 81 | 1017.6 |
| 20260901210023 | 68 | 50 | 0.0 | 1.0 | 0.00 | 0.00 | 0.00 | 81 | 1017.7 |
| 20260901205526 | 68 | 50 | 0.0 | 2.0 | 0.00 | 0.00 | 0.00 | 81 | 1017.7 |
| 20260901205030 | 68 | 50 | 1.0 | 2.0 | 0.00 | 0.00 | 0.00 | 81 | 1017.6 |
| 20260901204533 | 68 | 50 | 0.0 | 2.0 | 0.00 | 0.00 | 0.00 | 81 | 1017.6 |
| 20260901204032 | 68 | 50 | 0.0 | 3.0 | 0.00 | 0.00 | 0.00 | 81 | 1017.7 |
| 20260901203516 | 68 | 50 | 0.0 | 3.0 | 0.00 | 0.00 | 0.00 | 81 | 1017.6 |
| 20260901203027 | 69 | 50 | 0.0 | 2.0 | 0.00 | 0.00 | 0.00 | 81 | 1017.5 |
| 20260901202529 | 69 | 50 | 0.0 | 2.0 | 0.00 | 0.00 | 0.00 | 81 | 1017.6 |
| 20260901202031 | 69 | 50 | 0.0 | 1.0 | 0.00 | 0.00 | 0.00 | 81 | 1017.7 |
| 20260901201515 | 69 | 50 | 0.0 | 2.0 | 0.00 | 0.00 | 0.00 | 81 | 1017.7 |
| 20260901201018 | 69 | 50 | 1.0 | 2.0 | 0.00 | 0.00 | 0.00 | 80 | 1017.6 |
| 20260901200521 | 69 | 50 | 0.0 | 1.0 | 0.00 | 0.00 | 0.00 | 80 | 1017.6 |
| 20260901200032 | 69 | 50 | 0.0 | 1.0 | 0.00 | 0.00 | 0.00 | 80 | 1017.6 |
| 20260901195514 | 69 | 50 | 1.0 | 2.0 | 0.00 | 0.00 | 0.00 | 80 | 1017.5 |
| 20260901195018 | 69 | 50 | 1.0 | 2.0 | 0.00 | 0.00 | 0.00 | 80 | 1017.4 |
| 20260901194522 | 69 | 50 | 0.0 | 2.0 | 0.00 | 0.00 | 0.00 | 80 | 1017.4 |
| 20260901194022 | 69 | 50 | 0.0 | 1.0 | 0.00 | 0.00 | 0.00 | 79 | 1017.3 |
| 20260901193526 | 70 | 50 | 0.0 | 1.0 | 0.00 | 0.00 | 0.00 | 79 | 1017.3 |
| 20260901193021 | 70 | 50 | 0.0 | 1.0 | 0.00 | 0.00 | 0.00 | 79 | 1017.3 |
| 20260901192524 | 70 | 50 | 0.0 | 1.0 | 0.00 | 0.00 | 0.00 | 78 | 1017.3 |
| 20260901192024 | 70 | 50 | 0.0 | 2.0 | 0.00 | 0.00 | 0.00 | 78 | 1017.2 |
| 20260901191528 | 70 | 50 | 0.0 | 3.0 | 0.00 | 0.00 | 0.00 | 79 | 1017.2 |
| 20260901191027 | 70 | 50 | 2.0 | 3.0 | 0.00 | 0.00 | 0.00 | 79 | 1017.1 |
| 20260901190512 | 70 | 50 | 1.0 | 2.0 | 0.00 | 0.00 | 0.00 | 79 | 1017.1 |
| 20260901190027 | 71 | 50 | 0.0 | 2.0 | 0.00 | 0.00 | 0.00 | 78 | 1017.1 |
| 20260901185529 | 71 | 50 | 1.0 | 3.0 | 0.00 | 0.00 | 0.00 | 78 | 1017.1 |
| 20260901185029 | 71 | 50 | 1.0 | 3.0 | 0.00 | 0.00 | 0.00 | 77 | 1017.0 |
| 20260901184514 | 71 | 50 | 0.0 | 2.0 | 0.00 | 0.00 | 0.00 | 77 | 1017.0 |
| 20260901184016 | 71 | 50 | 0.0 | 1.0 | 0.00 | 0.00 | 0.00 | 77 | 1016.9 |
| 20260901183542 | 71 | 50 | 1.0 | 2.0 | 0.00 | 0.00 | 0.00 | 76 | 1016.9 |
| 20260901183019 | 72 | 50 | 0.0 | 2.0 | 0.00 | 0.00 | 0.00 | 76 | 1016.9 |
| 20260901182543 | 72 | 50 | 0.0 | 2.0 | 0.00 | 0.00 | 0.00 | 76 | 1016.8 |
| 20260901182022 | 72 | 50 | 1.0 | 1.0 | 0.00 | 0.00 | 0.00 | 76 | 1016.8 |
| 20260901181525 | 73 | 50 | 0.0 | 2.0 | 0.00 | 0.00 | 0.00 | 75 | 1016.7 |
| 20260901181025 | 73 | 50 | 1.0 | 2.0 | 0.00 | 0.00 | 0.00 | 75 | 1016.7 |
| 20260901180529 | 73 | 50 | 1.0 | 2.0 | 0.00 | 0.00 | 0.00 | 74 | 1016.6 |
| 20260901180023 | 74 | 50 | 0.0 | 1.0 | 0.00 | 0.00 | 0.00 | 73 | 1016.5 |
| 20260901175528 | 74 | 50 | 0.0 | 1.0 | 0.00 | 0.00 | 0.00 | 72 | 1016.5 |
| 20260901175051 | 74 | 50 | 0.0 | 1.0 | 0.00 | 0.00 | 0.00 | 72 | 1016.4 |
| 20260901174513 | 74 | 50 | 0.0 | 1.0 | 0.00 | 0.00 | 0.00 | 71 | 1016.4 |
| 20260901174016 | 75 | 50 | 0.0 | 0.0 | 0.00 | 0.00 | 0.00 | 71 | 1016.4 |
| 20260901173517 | 75 | 50 | 0.0 | 0.0 | 0.00 | 0.00 | 0.00 | 70 | 1016.3 |
| 20260901173029 | 75 | 50 | 0.0 | 0.0 | 0.00 | 0.00 | 0.00 | 71 | 1016.2 |
| 20260901172515 | 76 | 50 | 0.0 | 0.0 | 0.00 | 0.00 | 0.00 | 70 | 1016.2 |
| 20260901172038 | 76 | 50 | 0.0 | 1.0 | 0.00 | 0.00 | 0.00 | 70 | 1016.2 |
| 20260901171524 | 76 | 50 | 0.0 | 1.0 | 0.00 | 0.00 | 0.00 | 70 | 1016.2 |
| 20260901171023 | 77 | 50 | 1.0 | 1.0 | 0.00 | 0.00 | 0.00 | 69 | 1016.3 |
| 20260901170527 | 77 | 50 | 0.0 | 1.0 | 0.00 | 0.00 | 0.00 | 69 | 1016.2 |
| 20260901170019 | 78 | 50 | 0.0 | 2.0 | 0.00 | 0.00 | 0.00 | 66 | 1016.2 |
| 20260901165526 | 78 | 50 | 1.0 | 2.0 | 0.00 | 0.00 | 0.00 | 67 | 1016.2 |
| 20260901165028 | 79 | 50 | 0.0 | 2.0 | 0.00 | 0.00 | 0.00 | 66 | 1016.3 |
| 20260901164511 | 79 | 50 | 0.0 | 3.0 | 0.00 | 0.00 | 0.00 | 63 | 1016.2 |
| 20260901164032 | 79 | 50 | 1.0 | 3.0 | 0.00 | 0.00 | 0.00 | 63 | 1016.3 |
| 20260901163512 | 80 | 51 | 1.0 | 2.0 | 0.00 | 0.00 | 0.00 | 61 | 1016.2 |
| 20260901163026 | 80 | 52 | 0.0 | 2.0 | 0.00 | 0.00 | 0.00 | 58 | 1016.3 |
| 20260901162511 | 80 | 52 | 1.0 | 2.0 | 0.00 | 0.00 | 0.00 | 61 | 1016.3 |
| 20260901162011 | 80 | 53 | 1.0 | 2.0 | 0.00 | 0.00 | 0.00 | 63 | 1016.2 |
| 20260901161516 | 80 | 53 | 0.0 | 3.0 | 0.00 | 0.00 | 0.00 | 61 | 1016.2 |
| 20260901161021 | 81 | 53 | 1.0 | 3.0 | 0.00 | 0.00 | 0.00 | 61 | 1016.2 |
| 20260901160526 | 81 | 53 | 1.0 | 2.0 | 0.00 | 0.00 | 0.00 | 59 | 1016.2 |
| 20260901160021 | 82 | 53 | 1.0 | 2.0 | 0.00 | 0.00 | 0.00 | 56 | 1016.2 |
| 20260901155522 | 82 | 52 | 1.0 | 2.0 | 0.00 | 0.00 | 0.00 | 58 | 1016.3 |
| 20260901155024 | 83 | 52 | 1.0 | 2.0 | 0.00 | 0.00 | 0.00 | 55 | 1016.3 |
| 20260901154527 | 83 | 52 | 1.0 | 2.0 | 0.00 | 0.00 | 0.00 | 52 | 1016.4 |
| 20260901154028 | 84 | 52 | 1.0 | 2.0 | 0.00 | 0.00 | 0.00 | 52 | 1016.4 |
| 20260901153514 | 84 | 53 | 1.0 | 2.0 | 0.00 | 0.00 | 0.00 | 52 | 1016.4 |
| 20260901153027 | 85 | 53 | 1.0 | 2.0 | 0.00 | 0.00 | 0.00 | 46 | 1016.5 |
| 20260901152551 | 86 | 54 | 1.0 | 2.0 | 0.00 | 0.00 | 0.00 | 49 | 1016.5 |
| 20260901152030 | 86 | 55 | 1.0 | 3.0 | 0.00 | 0.00 | 0.00 | 50 | 1016.5 |
| 20260901151514 | 86 | 55 | 1.0 | 5.0 | 0.00 | 0.00 | 0.00 | 50 | 1016.5 |
| 20260901151014 | 87 | 58 | 2.0 | 5.0 | 0.00 | 0.00 | 0.00 | 49 | 1016.5 |
| 20260901150521 | 87 | 71 | 1.0 | 2.0 | 0.00 | 0.00 | 0.00 | 47 | 1016.5 |
| 20260901150013 | 87 | 71 | 0.0 | 2.0 | 0.00 | 0.00 | 0.00 | 47 | 1016.6 |
| 20260901145518 | 88 | 71 | 1.0 | 2.0 | 0.00 | 0.00 | 0.00 | 47 | 1016.6 |
| 20260901145038 | 88 | 71 | 1.0 | 4.0 | 0.00 | 0.00 | 0.00 | 47 | 1016.7 |
| 20260901144522 | 89 | 71 | 1.0 | 4.0 | 0.00 | 0.00 | 0.00 | 47 | 1016.7 |
| 20260901144023 | 89 | 70 | 3.0 | 5.0 | 0.00 | 0.00 | 0.00 | 40 | 1016.7 |
| 20260901143527 | 89 | 62 | 3.0 | 6.0 | 0.00 | 0.00 | 0.00 | 43 | 1016.7 |
| 20260901143017 | 89 | 64 | 3.0 | 6.0 | 0.00 | 0.00 | 0.00 | 41 | 1016.7 |
| 20260901142520 | 89 | 57 | 1.0 | 8.0 | 0.00 | 0.00 | 0.00 | 43 | 1016.7 |
| 20260901142021 | 89 | 79 | 4.0 | 8.0 | 0.00 | 0.00 | 0.00 | 40 | 1016.7 |
| 20260901141524 | 89 | 68 | 4.0 | 6.0 | 0.00 | 0.00 | 0.00 | 40 | 1016.8 |